Find Starlink 5969

NORAD ID: 55993 Int'l Des: 2023-042 Owner: SPXS Country: US Constellation: starlink operational
LEOCIRCULAR

現在のビュー

3D地球を読み込み中...

About Starlink 5969

Starlink 5969 (NORAD 55993) is a starlink constellation satellite (v1.5) launched Mar 24, 2023 by SPXS of US. It operates in LEO, CIRCULAR orbit with a mass of 305.00 kg.

Starlink 5969について

説明を読み込み中...

次回通過

Passes for default location (London). Set your location on the main map for personalized predictions.

高度履歴

Loading altitude history...

軌道要素

1 55993U 23042H 26166.46251249 .00000285 00000-0 19871-4 0 9991
2 55993 43.0005 227.3486 0001380 269.2499 90.8194 15.27573841177829
Epoch: Jun 15, 2026 • Age: 24 hours

現在のステータス

高度 482.6 km
速度 7.63 km/s
衛星直下点 15.07°N, 49.68°W
打ち上げ日 Mar 24, 2023
運用期間 3.2 years
タイプ internet

技術仕様

分類 Payload
質量 305.00 kg
乾燥質量 290.00 kg
総質量 305.00 kg
長さ 0.20 m
直径 2.80 m
スパン 9.00 m
形状 Box + pan
製造者 SPXS
バスタイプ Starlink
フェーズステータス In Orbit
所有者/国 SPXS/US

Most Searched